CW0395 Weather Reports


time (UTC)temp
C
wind
direction
speed
KPH
gust
KPH
rain 1hr
cm
rain 24hr
cm
rain mn
cm
humidity
%
barometer
mb
20260508185008 19 223 8.0 19.3 0.00 0.00 0.00 50 1012.3
20260508184007 20 165 8.0 22.5 0.00 0.00 0.00 48 1012.2
20260508183009 19 312 11.3 19.3 0.00 0.00 0.00 52 1012.3
20260508182008 19 238 11.3 32.2 0.00 0.00 0.00 52 1012.5
20260508181007 18 185 11.3 29.0 0.00 0.00 0.00 52 1012.8
20260508180004 18 175 8.0 19.3 0.00 0.00 0.00 52 1013.1
20260508175005 18 299 8.0 25.7 0.00 0.00 0.00 56 1013.4
20260508173005 17 184 6.4 16.1 0.00 0.00 0.00 57 1013.8
20260508172003 16 193 4.8 14.5 0.00 0.00 0.00 57 1014.1
20260508171003 16 278 6.4 24.1 0.00 0.00 0.00 57 1014.1
20260508170003 16 322 4.8 17.7 0.00 0.00 0.00 57 1014.3
20260508165003 17 273 8.0 17.7 0.00 0.00 0.00 56 1014.5
20260508164003 17 243 6.4 16.1 0.00 0.00 0.00 58 1014.4
20260508163003 16 215 1.6 9.7 0.00 0.00 0.00 58 1014.5
20260508162004 16 339 3.2 11.3 0.00 0.00 0.00 57 1014.6
20260508161004 16 304 3.2 8.0 0.00 0.00 0.00 58 1014.8
20260508160003 16 340 4.8 12.9 0.00 0.00 0.00 59 1014.9
20260508155003 15 235 3.2 14.5 0.00 0.00 0.00 59 1014.8
20260508154003 15 189 4.8 14.5 0.00 0.00 0.00 59 1014.9
20260508153002 15 281 4.8 16.1 0.00 0.00 0.00 60 1014.9
20260508152004 14 302 4.8 16.1 0.00 0.00 0.00 60 1015.0
20260508151448 13 258 4.8 14.5 0.00 0.00 0.00 62 1015.3
20260508150002 13 279 4.8 14.5 0.00 0.00 0.00 64 1015.3
20260508145003 12 206 3.2 12.9 0.00 0.00 0.00 65 1015.3
20260508144448 12 286 4.8 9.7 0.00 0.00 0.00 66 1015.3
20260508143003 12 301 1.6 11.3 0.00 0.00 0.00 67 1015.3
20260508142003 11 339 3.2 8.0 0.00 0.00 0.00 66 1015.3
20260508141003 11 254 3.2 11.3 0.00 0.00 0.00 66 1015.4
20260508140002 11 209 1.6 11.3 0.00 0.00 0.00 66 1015.2
20260508135003 11 293 3.2 9.7 0.00 0.00 0.00 66 1015.3
20260508134003 11 212 3.2 12.9 0.00 0.00 0.00 66 1015.3
20260508133003 11 344 4.8 14.5 0.00 0.00 0.00 66 1015.2
20260508132003 11 212 4.8 19.3 0.00 0.00 0.00 65 1015.3
20260508131442 11 311 4.8 16.1 0.00 0.00 0.00 64 1015.2
20260508130002 11 182 4.8 20.9 0.00 0.00 0.00 65 1015.2
20260508125441 11 196 4.8 12.9 0.00 0.00 0.00 66 1015.0
20260508124003 11 204 4.8 16.1 0.00 0.00 0.00 67 1015.0
20260508123002 11 294 3.2 12.9 0.00 0.00 0.00 68 1015.1
20260508122003 10 182 4.8 16.1 0.00 0.00 0.00 67 1014.9
20260508121003 10 209 3.2 12.9 0.00 0.00 0.00 69 1015.0
20260508120000 10 202 4.8 16.1 0.00 0.00 0.00 68 1014.9
20260508115002 10 166 3.2 9.7 0.00 0.00 0.00 68 1014.9
20260508114000 10 194 3.2 14.5 0.00 0.00 0.00 70 1014.9
20260508113003 9 205 4.8 12.9 0.00 0.00 0.00 69 1014.8
20260508111959 9 210 3.2 11.3 0.00 0.00 0.00 70 1014.8
20260508110958 8 200 1.6 12.9 0.00 0.00 0.00 72 1014.6
20260508105959 8 263 0.0 4.8 0.00 0.00 0.00 73 1014.7
20260508104956 8 219 0.0 4.8 0.00 0.00 0.00 72 1014.6
20260508103957 8 305 1.6 8.0 0.00 0.00 0.00 72 1014.5
20260508103439 8 270 1.6 9.7 0.00 0.00 0.00 72 1014.4
20260508101954 8 190 1.6 11.3 0.00 0.00 0.00 72 1014.4
20260508101441 8 247 1.6 6.4 0.00 0.00 0.00 71 1014.3
20260508095954 7 186 1.6 6.4 0.00 0.00 0.00 72 1014.3
20260508095440 7 216 1.6 8.0 0.00 0.00 0.00 71 1014.2
20260508093954 8 171 1.6 6.4 0.00 0.00 0.00 72 1014.4
20260508092954 8 182 0.0 1.6 0.00 0.00 0.00 71 1014.4
20260508091954 8 186 1.6 6.4 0.00 0.00 0.00 71 1014.5
20260508091432 8 193 3.2 8.0 0.00 0.00 0.00 70 1014.5
20260508085955 8 244 3.2 9.7 0.00 0.00 0.00 71 1014.6
20260508084953 8 285 1.6 6.4 0.00 0.00 0.00 72 1014.6
20260508083948 7 202 0.0 9.7 0.00 0.00 0.00 73 1014.5
20260508082949 7 221 0.0 6.4 0.00 0.00 0.00 75 1014.5
20260508081948 7 148 0.0 0.0 0.00 0.00 0.00 77 1014.6
20260508080948 7 97 0.0 0.0 0.00 0.00 0.00 78 1014.5
20260508075948 7 207 0.0 0.0 0.00 0.00 0.00 78 1014.6
20260508075424 7 207 0.0 0.0 0.00 0.00 0.00 79 1014.6
20260508073946 7 178 0.0 0.0 0.00 0.00 0.00 79 1014.7
20260508072940 7 192 0.0 0.0 0.00 0.00 0.00 79 1014.8
20260508071940 7 16 0.0 0.0 0.00 0.00 0.00 80 1014.9
20260508070940 7 15 0.0 0.0 0.00 0.00 0.00 79 1014.9
20260508065940 8 15 0.0 0.0 0.00 0.00 0.00 78 1015.1
20260508064940 8 298 0.0 0.0 0.00 0.00 0.00 77 1015.2
20260508063940 9 298 1.6 6.4 0.00 0.00 0.00 75 1015.3
20260508062941 9 94 0.0 0.0 0.00 0.00 0.00 73 1015.3
20260508061940 10 342 0.0 0.0 0.00 0.00 0.00 71 1015.5
20260508060940 10 338 0.0 0.0 0.00 0.00 0.00 69 1015.5
20260508055934 10 333 0.0 0.0 0.00 0.00 0.00 66 1015.5
20260508054934 10 311 1.6 4.8 0.00 0.00 0.00 65 1015.2
20260508054410 10 217 1.6 8.0 0.00 0.00 0.00 63 1015.2
20260508052935 10 176 3.2 9.7 0.00 0.00 0.00 63 1015.1
20260508052416 10 192 3.2 8.0 0.00 0.00 0.00 64 1015.0
20260508050934 10 142 3.2 6.4 0.00 0.00 0.00 65 1015.0
20260508050409 10 202 3.2 8.0 0.00 0.00 0.00 64 1015.0
20260508042929 10 177 1.6 6.4 0.00 0.00 0.00 64 1015.2
20260508041929 10 142 1.6 4.8 0.00 0.00 0.00 65 1015.2
20260508040929 10 232 1.6 8.0 0.00 0.00 0.00 67 1015.2
20260508035929 9 144 1.6 4.8 0.00 0.00 0.00 67 1015.3
20260508034929 8 155 0.0 4.8 0.00 0.00 0.00 69 1015.2
20260508033929 8 161 0.0 0.0 0.00 0.00 0.00 69 1015.1
20260508032929 8 175 0.0 0.0 0.00 0.00 0.00 70 1015.1
20260508031929 8 186 0.0 4.8 0.00 0.00 0.00 69 1015.1
20260508031407 8 167 0.0 1.6 0.00 0.00 0.00 71 1015.2
20260508025929 7 253 0.0 1.6 0.00 0.00 0.00 73 1015.2
20260508024928 7 253 0.0 1.6 0.00 0.00 0.00 73 1015.3
20260508023929 7 253 0.0 1.6 0.00 0.00 0.00 71 1015.3
20260508022929 8 253 0.0 1.6 0.00 0.00 0.00 70 1015.0
20260508021929 8 253 0.0 3.2 0.00 0.00 0.00 70 1015.2
20260508020930 8 175 0.0 0.0 0.00 0.00 0.00 71 1015.0
20260508015929 8 175 0.0 0.0 0.00 0.00 0.00 71 1015.0
20260508014928 9 194 0.0 0.0 0.00 0.00 0.00 68 1015.1
20260508013929 9 194 0.0 0.0 0.00 0.00 0.00 67 1015.1
20260508012929 10 194 0.0 3.2 0.00 0.00 0.00 64 1015.0
20260508011930 10 214 0.0 3.2 0.00 0.00 0.00 64 1015.0
20260508010929 10 258 0.0 1.6 0.00 0.00 0.00 63 1014.9
20260508005929 10 269 0.0 0.0 0.00 0.00 0.00 61 1014.9
20260508005409 11 269 0.0 0.0 0.00 0.00 0.00 59 1014.9
20260508003930 11 269 0.0 0.0 0.00 0.00 0.00 58 1014.8
20260508002929 12 269 0.0 0.0 0.00 0.00 0.00 57 1014.8
20260508001929 12 269 0.0 0.0 0.00 0.00 0.00 54 1014.8
20260508000929 12 269 0.0 3.2 0.00 0.00 0.00 51 1014.7
20260508000405 13 313 0.0 3.2 0.00 0.00 0.00 50 1014.5
20260507234928 13 254 1.6 6.4 0.00 0.00 0.00 47 1014.4
20260507233930 13 285 1.6 4.8 0.00 0.00 0.00 47 1014.5
20260507233407 13 281 3.2 9.7 0.00 0.00 0.00 45 1014.5
20260507231929 13 299 3.2 11.3 0.00 0.00 0.00 46 1014.5
20260507230930 14 315 1.6 6.4 0.00 0.00 0.00 45 1014.4
20260507225929 14 313 1.6 6.4 0.00 0.00 0.00 47 1014.4
20260507224929 14 61 1.6 6.4 0.00 0.00 0.00 46 1014.5
20260507223929 13 299 3.2 6.4 0.00 0.00 0.00 46 1014.6
20260507223409 13 251 3.2 11.3 0.00 0.00 0.00 45 1014.7
20260507221929 14 157 3.2 8.0 0.00 0.00 0.00 44 1014.7
20260507220929 15 335 3.2 9.7 0.00 0.00 0.00 45 1014.7
20260507215929 14 293 1.6 6.4 0.00 0.00 0.00 48 1014.8
20260507214928 14 5 3.2 9.7 0.00 0.00 0.00 45 1014.7
20260507213930 14 292 3.2 9.7 0.00 0.00 0.00 44 1014.5
20260507212929 15 300 4.8 12.9 0.00 0.00 0.00 44 1014.6
20260507211928 16 288 4.8 14.5 0.00 0.00 0.00 44 1014.5
20260507210929 15 295 3.2 11.3 0.00 0.00 0.00 47 1014.3
20260507205929 15 296 4.8 9.7 0.00 0.00 0.00 47 1014.3
20260507204929 15 290 4.8 12.9 0.00 0.00 0.00 48 1014.4
20260507203930 15 337 6.4 16.1 0.00 0.00 0.00 44 1014.5
20260507202929 15 286 4.8 11.3 0.00 0.00 0.00 49 1014.4
20260507201929 15 339 4.8 12.9 0.00 0.00 0.00 48 1014.3
20260507200929 14 305 4.8 12.9 0.00 0.00 0.00 47 1014.5
20260507195929 15 295 4.8 12.9 0.00 0.00 0.00 51 1014.5
20260507194929 15 290 4.8 14.5 0.00 0.00 0.00 52 1014.4
20260507193929 15 297 6.4 14.5 0.00 0.00 0.00 50 1014.6
20260507192929 15 321 4.8 14.5 0.00 0.00 0.00 47 1014.7
20260507191929 15 287 6.4 16.1 0.00 0.00 0.00 49 1014.8
20260507190930 14 281 4.8 16.1 0.00 0.00 0.00 48 1014.7
20260507185929 14 276 6.4 16.1 0.00 0.00 0.00 49 1014.9